Погода в Рязани

Погода в Рязани : погода сейчас, прогноз погоды и архив. Всё, что Вы хотите узнать о погоде в Рязани!

Хотите узнать прогноз погоды в Рязани? Тогда Вам сюда: Погода в Рязани

Поиск расширенной информации на нашем сайте:

Другие новости

Новости СМИ2

Главная страница сайта

Новости сайта

03.07.2017

Напоминаем, что на нашем специализированном сайте Метеоцентр.Азия вы можете получить высокодетализированные автоматические прогнозы погоды по пунктам России, СНГ и мира в авиационном формате (включающие направление и скорость ветра, видимость, явления погоды, количество и форму облачности, нижнюю и верхнюю границу облачности).

Рекомендуем: Информация medicine на нашем сайте.

Погода в Рязани - сегодня

Время (UTC), дата Ветер
(°,м/с) 
Видим.   Явления Облачность Т
(°С)
Тd
(°С)
f(%) Тe
(°С)
Pmin
(гПа)
dP
(гПа)
Po
(мм)
O2
(г/м3)
Тmin Tmax R s Состояние
почвы
09 11.12.17 150 (ЮВ) 3{10}  4000 м  слаб. дождь{снег}  10/10 300 м 
[Ns]
+1.1 +0.8 98 1008.7  0.1  742  298           
12 11.12.17 160 (Ю) 4000 м  слаб. дождь{снег}  10/10 300 м 
[Ns]
+1.2 +0.8 97 1008.4  -0.2  742  297           
15 11.12.17 170 (Ю) 4000 м  слаб. снег{дождь}  10/10 300 м 
[Ns]
+0.1 -0.2 98 -2  1008.9  0.4  742  299    +2.8     
18 11.12.17 220 (ЮЗ) 5-10{10}  4000 м  слаб. снег  10/10 300 м 
[Ns]
+0.7 +0.4 98 -2  1010  1.1  743  298           
21 11.12.17 210 (ЮЗ) 4{11}  10 км  {снег}  10/10 300 м 
[Sc]
-1 -2.3 91 -4  1013.4  3.1  745  302           
00 12.12.17 190 (Ю) 10 км  {снег}  10/10 300 м 
[Sc]
-0.8 -1.8 93 -3  1013.8  0.5  746  301           
03 12.12.17 190 (Ю) 4000 м  слаб. снег  10/10 300 м 
[Ns]
-0.9 -1.2 98 -2  1015  1.2  746  302  -1.1    0.9  равномерный
сухой снег
100% 
06 12.12.17 170 (Ю) 4000 м  дымка{снег}  10/10 600 м 
[Sc]
-0.7 -0.9 99 1016  747  302           
09 12.12.17 180 (Ю) 4000 м  дымка  10/10 300 м 
[St]
+0.3 -0.3 96 1016.6  0.6  748  301           
12 12.12.17 170 (Ю) 4000 м  дымка  10/10 300 м 
[St]
+0.6 +0.1 96 +1  1016.2  -0.3  747  300           
15 12.12.17 140 (ЮВ) 4000 м  дымка  10/10 300 м 
[St]
+0.4 +0.2 99 -1  1015.7  -0.5  747  301    +0.7  0.2     
18 12.12.17 150 (ЮВ) 4000 м  дымка  10/10 300 м 
[St]
+0.7 +0.5 99 -1  1015.1  -0.6  747  300           
21 12.12.17 140 (ЮВ) 4000 м  слаб. дождь  10/10 300 м 
[Ns]
+1.2 +0.9 98 1014.1  -0.9  746  299           
00 13.12.17 160 (Ю) 4000 м  дымка{дождь}  10/10 300 м 
[St]
+1.5 +1.3 99 1013.1  -0.9  745  298           
03 13.12.17 160 (Ю) 4000 м  дымка  10/10 300 м 
[St]
+2.3 +2.1 99 +1  1012  -1  744  297  +0.4    равномерный
мокрый или
старый снег
100% 
06 13.12.17 180 (Ю) 0500 м  туман  10/10 200 м 
[St]
+2.5 +2.2 98 1012.2  0.2  745  297           
09 13.12.17 190 (Ю) 0500 м  туман  10/10 200 м 
[St]
+2.4 +2.1 98 1012.6  0.4  745  297           
12 13.12.17 200 (Ю) 0200 м  туман  10/10 200 м 
[St]
+2 +1.7 98 +1  1012.5  -0.1  745  298           
15 13.12.17 210 (ЮЗ) 0200 м  туман  10/10 200 м 
[St]
+1.9 +1.6 98 +3  1014.2  1.7  746  298    +2.6       
18 13.12.17 170 (Ю) 1000 м  слаб. дождь{туман}  10/10 200 м 
[Frnb|Ns]
+1.5 +1.3 99 +2  1014.3  0.1  746  299           
21 13.12.17 тихо ()   2000 м  слаб. дождь  10/10 200 м 
[Frnb|Ns]
+1 +0.7 98 +1  1015  0.6  747  300           
00 14.12.17 050 (СВ) 2000 м  слаб. снег{дождь}  10/10 200 м 
[Frnb|Ns]
+0.1 -0.2 98 +1  1014.4  -0.7  746  300           
03 14.12.17 060 (СВ) 2000 м  слаб. снег  10/10 200 м 
[Frnb|Ns]
+0.1 -0.2 98 +1  1013.3  -1  745  300  +0.1    11  равномерный
мокрый или
старый снег
100% 
06 14.12.17 070 (В) 2000 м  ледяные иглы{дождь}  10/10 200 м 
[Frnb|Ns]
+0.2 -0.1 98 +1  1011.4  -1.8  744  299           
09 14.12.17 170 (Ю) 2000 м  слаб. дождь{туман}  10/10 300 м 
[Frnb|Ns]
+1.7 +1.5 99 +1  1010.4  -0.8  743  297           
Время (UTC), дата Ветер
(°,м/с) 
Видим.   Явления Облачность Т
(°С)
Тd
(°С)
f(%) Тe
(°С)
Pmin
(гПа)
dP
(гПа)
Po
(мм)
O2
(г/м3)
Тmin Tmax R s Состояние
почвы

Для получения пояснительной информации подведите курсор к названию столбца.

ПОГОДА в Рязани - архив

Всё, что Вы хотите узнать о погоде в Рязани - удобно и подробно!

Выберите нужную дату (начиная с 1 января 2015* года) и нажмите кнопку "Найти".
Будут отображены архивные сводки погоды по пункту Рязань, начиная с указанной даты.


Отображать данные в формате CSV (для использования в таблицах Excel)


Внимание! Наш архив погоды предназначен исключительно для личного некоммерческого использования в познавательных целях. Если Вам необходимы официальные справки о состоянии погоды (для производственных, юридических, коммерческих и т.п. целей), обращайтесь в органы Росгидромета.

*Примечание: данная дата относится к архиву по метеостанциям СССР (Россия, СНГ, Балтия).
Архив по метеостанциям Зарубежной Европы и Азии (кроме Китая) хранится 10 дней, по другим регионам земного шара (Китай, Африка, Америка, Австралия, Океания) - 1 день.

Рязань - район местоположения метеостанции


Название, широта, долгота, высота метеостанции:
Рязань 54.6°ш. 39.7°д. 158 м над ур. моря [Российская Федерация]

Дополнительная информация

В oтличие oт бoльшинства пoгoдных сайтoв мы публикуем пoдрoбную метеoинфoрмацию в детальнoм прoфессиoнальнoм фoрмате.

Характеристики температуры и влажнoсти вoздуха измеряются на высoте 2 м в тени вдали oт зданий и деревьев.
Скoрoсть ветра измеряется на высoте 10 м (на урoвне рoста челoвека скoрoсть ветра ниже в 1.5-2 раза). Если метеoстанция нахoдится в гoрoде или в лесу, тo скoрoсть ветра занижена на 2-4 м/с пo сравнению с oткрытым местoм. Скoрoсть ветра над акватoриями крупных рек и oзёр, а также на вершинах хoлмoв на 2-5 м/с выше, чем в oбычных услoвиях.
Атмoсфернoе давление в разных тoчках местнoсти мoжет значительнo oтличаться oт давления на метеoстанции, в зависимoсти oт услoвий рельефа (при пoдъёме на 10 м давление пoнижается примернo на 1 мм рт.ст.).